Location: Berbisdorf
(50.7638°N, 12.9442°E)
Time: 21:59:51
(UTC+00:00)

IKONOS-2 - Pass Details

Date: 07 June 2020
Orbit: 599 x 612 km, 98.1° (Epoch: 11 July)

Event Time Altitude Azimuth Distance (km) Brightness Sun altitude
Exits shadow 00:51:34 14° 170° (S) 1,700 6.3 -12.9°
Maximum altitude 00:55:12 78° 255° (WSW) 632 4.5 -12.7°
Drops below altitude 10° 00:59:31 10° 343° (NNW) 1,980 7.9 -12.4°
Sets 01:01:42 0° 345° (NNW) 2,888 8.8 -12.2°
